Regional Weather Roundup
Issued by NWS Kansas City/Pleasant Hill, MO

Home | Current Version | Previous Version | Graphics & Text | Print | Product List | Glossary Off
Versions: 1 2 3 4 5 6 7 8 9 10 11 12 13 14 15 16 17 18 19 20 21 22 23 24 25 26 27 28 29 30 31 32 33 34 35 36 37 38 39 40 41 42 43 44 45 46 47 48 49 50

000
ASUS43 KEAX 172010
RWREAX

WEATHER ROUNDUP FOR EASTERN KANSAS AND NORTHWEST MISSOURI
NATIONAL WEATHER SERVICE KANSAS CITY/PLEASANT HILL MO
300 PM CDT WED SEP 17 2014

KSZ040-057-103>105-MOZ028-029-037-043-172100-
...KANSAS CITY METROPOLITAN AREA...

CITY           SKY/WX    TMP DP  RH WIND       PRES   REMARKS
K.C. INTL      CLOUDY    72  67  84 E6        29.92F
K.C. DOWNTOWN  CLOUDY    73  67  81 E7        29.90F
LEES SUMMIT    CLOUDY    72  67  84 SE3       29.92F
OLATHE - IXD   CLOUDY    75  67  76 E7        29.91F
OLATHE - OJC   CLOUDY    72  67  84 NE8       29.91S
LAWRENCE       CLOUDY    74  67  78 NE7       29.90F

$$

MOZ001>008-011>017-020>025-030>033-038>040-044>046-053-054-172100-
...NORTHERN AND CENTRAL MISSOURI...

CITY           SKY/WX    TMP DP  RH WIND       PRES   REMARKS
ST. JOSEPH     PTSUNNY   77  67  71 SE5       29.90F
MOSBY          CLOUDY    70  64  83 SE3       29.91S
WHITEMAN AFB   CLOUDY    70  66  88 SE2       29.92S
CLINTON        CLOUDY    72  70  94 SE3       29.92F
SEDALIA        CLOUDY    72  66  81 CALM      29.93R
WARSAW         NOT AVBL
MARSHALL       CLOUDY    72  68  88 SE3       29.93F
CHILLICOTHE      N/A     76  65  68 VRB5      29.92F
MOBERLY        PTSUNNY   73  59  60 SE3       29.94F
KIRKSVILLE     PTSUNNY   71  61  70 E5        29.95F

$$

MOZ041-047>049-056>058-063>065-088>090-097-172100-
...EASTERN AND SOUTHERN MISSOURI...

CITY           SKY/WX    TMP DP  RH WIND       PRES   REMARKS
ST. LOUIS INTL PTSUNNY   66  57  72 E8        29.97F
SPIRIT OF STL  CLOUDY    68  59  73 VRB6      29.94F
COLUMBIA       CLOUDY    67  63  87 E6        29.94S
JEFFERSON CITY CLOUDY    69  64  84 NE6       29.92S
MEXICO         CLOUDY   N/A N/A N/A E5        29.95  HAZE
ROLLA          CLOUDY    66  61  84 SW8       29.92F
LEBANON        MOSUNNY   73  64  73 SW10      29.93F
OSAGE BEACH    CLOUDY    72  64  78 W5        29.92F
SPRINGFIELD    PTSUNNY   68  65  90 S12       29.93F
BRANSON        TSTM      64  63  94 S13       29.99S
NEVADA         MOSUNNY   79  70  73 E6        29.91F
JOPLIN         MOSUNNY   88  73  61 SW14G21   29.87F HX  95
WEST PLAINS    CLOUDY    63  60  90 SW10      29.95F

$$

IAZ060-094-KSZ022-034>040-054-083-096-NEZ052-066-093-172100-
...KANSAS...SOUTHEAST NEBRASKA AND IOWA...

CITY           SKY/WX    TMP DP  RH WIND       PRES   REMARKS
TOPEKA         CLOUDY    76  68  76 E7        29.90F
MANHATTAN      PTSUNNY   78  67  68 NE8       29.89F
EMPORIA        SUNNY     81  69  67 NE9       29.88F
CHANUTE        PTSUNNY   90  70  51 VRB3      29.86F HX  95
WICHITA        MOSUNNY   97  58  27 VRB7      29.83F HX  96
OMAHA          MOSUNNY   77  60  55 SE6       29.90F
LINCOLN        SUNNY     78  63  59 VRB7      29.91F
FALLS CITY     MOSUNNY   77  66  68 SE8       29.90S
LAMONI         PTSUNNY   74  61  63 NE6       29.93F
DES MOINES     PTSUNNY   75  57  53 SE6       29.93F

$$




USA.gov is the U.S. government's official web portal to all federal, state and local government web resources and services.